RH
8 9 10 10 8 7 6 6 6 17 33 36 35 24 14 15 23 20 16 16 48 51 57 58 41 43 46 34 41 55 58 62 70 82 98 91 94 80 84 82 75 76 72
9 10 10 10 9 7 7 6 6 7 7 8 8 7 7 7 10 11 7 16 40 43 50 51 42 44 45 45 41 39 44 53 54 55 63 80 85 98 89 99 100 90 91
8 9 9 11 10 10 9 8 6 6 7 8 8 7 7 7 6 7 7 7 30 45 54 57 57 53 46 40 41 51 57 60 58 60 67 76 90 89 84 88 88 75 71
8 9 11 12 12 11 10 10 9 9 7 7 8 8 8 8 7 7 7 6 8 34 54 49 43 34 42 56 46 42 26 12 8 31 68 75 89 91 87 83 74 64 76
14 11 12 13 14 14 13 13 13 12 11 9 8 8 9 10 10 10 9 8 7 7 20 37 39 31 17 11 33 32 12 7 7 7 8 29 78 86 78 80 45 31 21
20 20 15 14 14 14 15 18 16 17 18 15 14 10 10 11 12 12 12 12 11 10 9 8 8 8 8 8 8 8 8 8 8 8 8 7 6 8 7 7 8 12 16
22 23 25 21 18 15 16 15 17 21 22 22 22 20 14 10 12 13 14 15 15 15 15 14 14 13 13 14 15 16 17 17 18 18 18 17 15 16 17 20 22 24 24
42 31 29 28 24 26 28 28 25 22 20 20 22 24 24 23 16 12 12 13 15 16 18 19 21 22 22 23 23 24 24 23 22 21 22 21 21 20 20 19 19 19 20
68 66 57 32 27 28 28 30 31 26 26 27 28 24 24 25 28 25 18 13 13 16 18 19 20 21 21 21 21 19 19 18 17 16 16 16 17 18 19 20 23 27 33
64 61 67 64 56 31 30 30 28 26 23 25 30 33 30 29 30 37 38 30 22 16 14 15 17 19 21 20 19 19 18 18 17 17 17 19 23 26 29 32 36 42 49
47 51 54 62 63 60 40 33 31 27 26 27 25 23 25 29 30 30 35 46 44 34 27 21 17 16 16 17 18 18 18 17 18 22 26 31 35 38 42 47 53 55 53
50 48 50 58 63 62 59 48 38 35 28 22 20 20 23 27 32 32 35 42 54 48 46 42 34 28 24 22 20 20 21 22 25 32 39 43 48 54 58 61 60 57 55
54 54 58 62 63 62 58 50 42 41 36 24 21 23 24 27 32 35 41 43 54 62 66 63 57 50 42 37 33 30 29 31 37 44 50 56 63 66 66 65 61 62 48
50 55 64 62 66 66 66 59 48 43 32 25 23 22 26 27 26 31 44 50 58 64 71 78 73 70 68 60 51 44 42 43 48 55 61 67 74 75 67 63 62 58 48
46 48 69 83 76 92 87 55 41 32 36 26 23 22 22 21 23 36 43 47 50 59 82 87 83 81 88 85 73 62 56 54 58 65 72 85 86 75 71 69 66 54 52
51 65 81 82 87 96 96 68 64 89 89 55 32 19 16 17 20 23 30 44 54 73 82 91 87 93 100 99 97 86 71 64 67 74 90 93 91 81 75 71 68 57 55
58 74 90 97 96 96 95 95 94 95 94 82 81 80 79 61 28 19 25 36 52 66 60 70 84 99 100 98 97 97 92 87 91 96 92 96 94 89 83 77 71 60 56
79 86 94 97 96 94 78 59 66 89 93 96 96 96 96 95 88 85 75 53 37 30 32 56 98 100 100 98 99 96 98 95 96 94 96 95 94 93 87 81 74 64 58
90 92 93 96 93 93 95 95 95 95 96 96 96 96 95 95 93 95 96 96 94 70 52 57 81 100 99 97 96 96 96 96 96 96 96 96 94 93 90 85 76 65 61
81 90 94 96 99 98 96 95 95 95 94 92 95 96 95 95 88 80 54 68 85 96 95 93 93 96 97 95 97 97 97 95 96 97 94 96 96 94 93 87 74 65 70
97 95 95 95 97 96 97 97 94 94 93 92 92 92 92 84 83 65 64 63 58 58 77 87 90 98 97 97 96 97 96 96 96 96 95 95 96 96 93 85 69 69 78
96 97 96 96 96 95 95 96 95 91 90 88 86 87 85 62 48 52 54 52 58 62 63 69 83 95 96 94 96 95 96 96 96 95 96 95 95 95 92 76 69 80 77
95 91 94 90 87 84 87 83 80 77 80 82 80 80 74 61 64 67 63 61 67 77 88 90 86 93 96 96 97 96 94 96 96 95 95 95 95 95 83 70 82 81 75
94 78 81 85 90 80 77 84 86 84 81 80 79 80 79 79 80 78 71 66 76 83 92 96 97 97 96 97 96 95 96 96 96 96 95 95 95 90 71 84 83 77 73
31 39 40 42 47 55 63 61 67 84 84 84 84 84 84 86 88 87 90 92 92 94 96 96 97 96 96 96 96 96 96 96 95 96 96 96 90 79 89 86 81 79 75
16 12 12 12 12 13 15 21 40 65 89 90 88 89 90 88 89 92 92 92 93 95 96 96 96 96 96 96 96 96 96 96 96 96 95 85 87 93 91 88 86 82 74
Wind_Speed
25 24 21 20 19 19 19 18 16 16 16 17 17 16 16 15 14 13 14 17 18 19 17 15 16 17 18 18 16 16 17 18 20 19 18 21 18 21 24 26 30 30 30
24 22 21 20 18 19 18 18 19 20 19 19 20 19 19 18 16 16 15 15 16 16 15 13 13 14 16 16 16 16 17 19 20 21 23 23 23 23 20 25 27 31 30
23 22 21 20 19 19 18 18 19 20 20 20 20 19 18 18 17 16 16 16 14 15 13 12 12 13 14 13 13 15 17 19 22 25 24 24 24 25 24 25 27 29 30
23 23 23 23 22 20 19 20 20 21 21 20 19 19 18 17 17 16 16 16 15 14 12 10 9 10 12 10 11 12 14 17 18 17 19 21 22 22 22 24 27 28 25
26 26 25 25 26 25 23 23 23 22 22 21 21 19 17 17 17 17 17 16 16 15 15 15 15 15 14 13 13 15 16 16 15 14 14 13 14 19 21 20 21 22 22
30 29 29 29 28 27 28 27 27 25 25 23 23 22 21 19 19 19 18 18 18 17 17 17 17 16 15 15 15 15 16 16 17 16 15 14 14 15 17 18 20 21 23
30 29 30 31 31 31 31 31 29 29 28 26 26 25 24 23 22 22 21 20 19 19 19 18 18 17 17 16 16 16 16 16 15 16 17 17 17 17 18 19 20 23 24
29 30 31 32 31 31 34 33 32 33 31 30 28 28 26 25 24 25 24 23 22 22 21 20 19 18 18 18 18 17 18 17 17 17 18 18 19 20 21 21 22 22 24
31 32 33 33 32 33 33 34 34 35 34 32 31 31 29 28 28 28 28 27 26 24 23 22 21 21 21 20 19 19 19 19 20 20 20 20 21 21 22 22 22 23 23
35 35 36 37 36 34 33 32 33 34 36 37 36 34 33 31 30 28 29 28 27 27 27 25 25 23 23 23 23 22 21 21 21 21 22 22 22 23 23 23 23 24 26
36 37 37 39 38 37 37 35 33 34 36 36 36 36 37 34 33 32 32 31 28 27 27 26 26 27 26 26 25 24 24 23 22 22 21 21 21 21 22 23 24 26 26
36 34 35 37 38 38 38 37 38 36 35 35 36 35 34 33 33 33 32 32 31 29 28 27 26 27 27 26 26 25 25 24 23 22 21 21 21 20 22 24 26 27 26
37 36 32 34 36 36 36 36 38 38 37 34 34 33 30 30 32 33 33 33 32 31 31 30 28 28 28 26 26 26 25 24 22 22 21 20 21 21 22 24 25 25 25
40 40 37 36 34 34 36 35 35 34 34 33 33 31 30 30 31 31 32 33 34 35 34 33 31 30 28 26 26 26 25 24 23 23 20 20 21 22 22 23 24 23 24
37 35 37 38 37 38 34 32 30 27 29 32 30 31 31 30 28 30 33 36 37 37 37 36 33 32 29 27 27 27 26 25 24 23 20 21 22 22 22 23 23 24 24
28 27 32 37 41 41 36 28 32 36 26 27 28 28 28 28 28 30 32 35 37 38 39 36 35 34 32 30 31 29 28 26 25 25 25 24 22 22 22 23 24 24 24
30 30 31 33 37 36 33 31 28 27 23 21 23 22 22 22 24 27 29 33 36 39 39 37 37 34 32 34 35 35 30 29 30 30 28 25 22 23 23 24 24 24 24
27 26 29 31 33 29 25 22 23 25 21 23 28 28 29 32 34 31 30 30 33 36 36 36 34 33 33 35 38 37 36 35 34 32 29 26 24 23 24 25 25 25 24
23 25 28 27 26 24 24 24 23 24 27 27 27 30 35 36 37 37 38 39 35 32 31 31 31 32 33 36 32 37 39 33 35 28 26 26 24 23 24 25 25 25 24
24 27 25 21 22 27 26 27 32 33 36 39 39 38 35 32 28 27 29 32 30 31 30 29 28 28 31 32 34 35 32 35 29 25 23 24 25 23 24 24 24 24 24
14 17 18 19 19 20 24 24 25 27 28 28 29 29 29 25 23 25 25 25 25 25 26 28 28 32 32 32 29 33 30 27 25 23 23 24 24 23 23 23 23 23 22
15 16 17 16 16 17 17 18 18 19 21 21 22 23 24 23 21 21 23 24 25 26 27 26 27 27 28 32 35 32 25 22 22 23 23 21 23 22 22 22 23 21 22
19 19 20 20 20 20 19 19 20 21 21 21 21 22 22 21 22 24 22 21 20 20 20 22 25 27 30 32 28 24 24 24 24 23 21 20 21 20 21 22 21 21 21
24 25 24 24 24 24 23 22 22 23 24 24 24 23 21 20 22 23 19 18 18 18 20 21 23 26 28 27 25 25 24 22 21 20 20 19 20 20 21 20 20 21 21
30 30 30 31 29 27 27 25 24 24 25 24 24 24 22 20 17 18 19 15 14 16 19 20 22 22 22 21 20 19 18 18 18 18 19 20 18 20 20 20 20 20 20
32 32 31 30 30 28 28 29 26 25 25 25 23 23 22 20 18 16 16 17 17 17 17 18 18 17 16 16 15 16 16 17 18 20 19 18 19 19 19 20 20 20 21
Wind_Direction
306 301 301 299 302 303 304 309 309 301 301 309 320 324 323 312 309 313 322 329 332 326 318 300 297 297 293 288 283 279 280 276 278 288 279 282 281 270 269 272 269 271 271
303 304 302 299 298 297 300 305 304 306 307 309 309 312 312 310 310 314 319 324 332 336 328 313 305 303 302 292 286 284 284 283 280 273 275 278 280 279 270 275 274 283 279
297 299 298 295 293 291 297 300 299 300 303 305 306 308 310 313 315 316 317 321 326 338 339 328 317 314 307 301 296 297 296 292 286 274 271 269 269 269 272 270 272 278 282
293 291 292 291 288 290 293 293 293 294 296 298 301 304 306 309 310 308 307 310 310 313 320 329 336 332 330 298 293 295 304 308 314 317 284 274 273 272 273 274 278 283 280
298 293 289 285 286 287 287 286 287 289 289 289 290 291 293 294 294 294 297 298 297 299 296 297 301 305 306 301 291 291 297 301 305 310 313 316 297 281 277 278 283 283 285
300 297 292 289 285 284 282 282 283 286 286 288 288 286 284 285 287 289 292 294 296 296 296 296 296 297 296 295 293 291 293 299 302 302 301 295 290 287 288 287 286 287 288
299 296 292 290 288 287 284 283 283 282 282 283 285 286 285 284 285 286 288 289 290 291 291 292 293 294 292 291 291 293 293 293 293 294 293 291 287 285 285 285 285 286 287
301 302 296 289 286 286 287 285 281 278 278 280 281 282 283 284 281 282 282 283 284 284 284 286 288 288 288 289 290 291 293 294 294 292 290 289 289 290 289 288 288 288 289
293 296 294 292 288 287 289 289 284 279 277 276 278 279 280 282 284 285 284 283 283 283 284 285 285 286 285 286 286 287 288 289 290 292 293 294 294 294 293 293 294 295 297
291 286 283 286 287 285 285 286 285 285 286 283 278 276 277 279 279 278 278 279 280 280 281 282 283 283 282 284 286 285 285 287 290 290 292 293 294 295 296 297 298 299 299
288 283 284 282 283 283 281 283 283 283 282 283 283 284 283 281 282 283 282 281 280 280 281 282 282 281 281 281 282 284 286 286 287 289 289 291 293 294 294 295 296 298 299
297 290 281 278 278 280 280 280 281 281 280 281 281 281 279 275 275 277 275 276 276 277 277 276 277 279 279 281 282 283 284 284 287 287 290 290 290 292 293 295 298 300 301
295 294 284 277 276 277 278 279 279 279 280 280 279 280 278 273 273 270 266 269 271 271 273 274 274 275 277 279 280 282 282 282 283 284 286 289 290 291 294 297 298 300 302
295 292 288 278 276 278 280 281 278 277 277 277 278 277 275 272 272 267 263 265 267 268 269 270 270 272 276 277 277 276 277 278 280 281 284 286 287 291 296 298 298 298 300
295 295 287 280 278 278 279 281 276 273 278 283 282 278 278 276 274 266 263 264 266 267 266 268 271 272 273 272 272 273 273 274 275 277 279 282 285 290 297 300 299 300 301
295 293 295 289 288 282 278 280 278 279 267 277 281 284 284 280 272 268 264 263 264 264 265 268 269 269 270 270 268 266 267 269 272 272 273 276 279 286 292 297 298 299 302
295 285 280 280 283 288 288 280 281 284 272 266 273 282 292 295 287 277 269 264 262 262 265 266 266 268 269 269 270 268 260 261 264 268 267 269 272 280 289 294 297 299 302
298 291 290 291 287 278 272 273 276 286 285 266 272 276 278 279 276 278 280 275 273 273 273 270 269 268 266 269 269 265 263 263 266 266 271 265 268 276 286 292 296 298 302
294 292 294 291 288 286 285 276 269 266 267 285 296 292 292 289 285 282 278 274 272 272 276 273 268 264 265 266 270 272 275 274 269 269 269 267 267 274 282 289 294 298 301
287 292 298 298 297 282 269 272 281 277 272 281 286 288 287 281 285 284 281 278 286 276 259 257 257 256 262 260 271 277 274 275 269 267 263 260 263 272 280 288 292 297 302
327 324 325 318 305 295 294 297 300 300 298 297 297 296 295 298 282 281 276 276 277 271 267 264 264 265 265 265 270 276 278 272 265 263 262 258 264 270 279 286 292 297 297
325 333 338 339 340 339 333 326 323 323 319 318 313 306 299 295 295 286 280 275 269 265 263 256 252 254 257 258 263 265 264 264 262 268 259 260 266 269 279 287 291 294 296
308 314 320 323 325 327 328 328 328 327 331 330 326 317 306 303 294 288 291 287 279 274 268 263 258 253 251 254 267 270 271 265 265 256 255 260 263 272 280 285 289 293 297
295 305 309 311 314 317 318 322 323 324 326 327 331 329 323 316 295 289 288 286 277 276 271 265 262 258 257 261 262 260 262 261 256 258 260 262 267 274 280 285 289 292 297
299 298 300 300 299 300 302 308 313 314 314 320 321 326 322 314 305 300 295 285 278 269 270 268 266 268 263 259 256 255 254 257 258 259 262 265 271 277 281 284 287 291 297
300 300 300 299 299 300 297 298 299 302 306 307 311 316 318 310 302 295 297 292 276 273 273 270 265 262 259 257 258 258 258 259 261 262 266 272 275 277 280 282 285 291 293